This is the latest recevied weather packets stored in our database for station/object KK6LVQ-13. If no packets are shown the sender has not sent any weather packets the latest 10 day(s).
| Time | Temp. | Humidity | Pressure | Rain* | Wind** | Luminosity | Snow |
|---|---|---|---|---|---|---|---|
| 1778170479 | 16.11° C | 83% | 1024.2 hPa | 0 mm | - | 411 W/m² | - |
| 1778170176 | 15.56° C | 83% | 1024.1 hPa | 0 mm | - | 396 W/m² | - |
| 1778169872 | 14.44° C | 87% | 1024.1 hPa | 0 mm | - | 380 W/m² | - |
| 1778169568 | 13.89° C | 88% | 1024.1 hPa | 0 mm | - | 362 W/m² | - |
| 1778169264 | 13.33° C | 90% | 1024.2 hPa | 0 mm | - | 343 W/m² | - |
| 1778168962 | 13.33° C | 90% | 1024.2 hPa | 0 mm | - | 327 W/m² | - |
| 1778168658 | 13.33° C | 89% | 1024.2 hPa | 0 mm | - | 310 W/m² | - |
| 1778168356 | 13.33° C | 88% | 1024.2 hPa | 0 mm | - | 294 W/m² | - |
| 1778168052 | 13.33° C | 90% | 1024.3 hPa | 0 mm | - | 277 W/m² | - |
| 1778167748 | 12.22° C | 92% | 1024.2 hPa | 0 mm | - | 260 W/m² | - |
| 1778167445 | 11.67° C | 94% | 1024.2 hPa | 0 mm | - | 242 W/m² | - |
| 1778167141 | 11.67° C | 95% | 1024.3 hPa | 0 mm | - | 210 W/m² | - |
| 1778166837 | 11.67° C | 97% | 1024.2 hPa | 0 mm | - | 173 W/m² | - |
| 1778166534 | 11.11° C | 98% | 1024.3 hPa | 0 mm | - | 143 W/m² | - |
| 1778166231 | 10.56° C | 98% | 1024.3 hPa | 0 mm | - | 104 W/m² | - |
| 1778165927 | 10.56° C | 98% | 1024.4 hPa | 0 mm | - | 58 W/m² | - |
| 1778165623 | 10.56° C | 99% | 1024.3 hPa | 0 mm | - | 56 W/m² | - |
| 1778165321 | 10.56° C | 99% | 1024.3 hPa | 0 mm | - | 63 W/m² | - |
| 1778165018 | 10° C | 99% | 1024.1 hPa | 0 mm | - | 61 W/m² | - |
| 1778164714 | 10.56° C | 99% | 1024.3 hPa | 0 mm | - | 61 W/m² | - |
| 1778164412 | 10° C | 99% | 1024.3 hPa | 0 mm | - | 57 W/m² | - |
| 1778164107 | 10° C | 99% | 1024.1 hPa | 0 mm | - | 63 W/m² | - |
| 1778163804 | 10° C | 99% | 1024.2 hPa | 0 mm | - | 54 W/m² | - |
| 1778163501 | 10° C | 99% | 1024.1 hPa | 0 mm | - | 50 W/m² | - |
| 1778163198 | 10° C | 99% | 1024.1 hPa | 0 mm | - | 44 W/m² | - |
* Rain latest hour (hover to see other rain measurements)
** Current wind speed in m/s (hover to see current wind gust speed)